EHI
0 0 1 2 4 4 2 1 0 0 0 0 0 0 0 0 0 0 0 0 0 0 0 0 0 0 0 0 0 0 0 0 0 0 0 0 0 0 0 0 0 0 0
0 0 1 3 4 4 3 1 0 0 0 0 0 0 0 0 0 0 0 0 0 0 0 0 0 0 0 0 0 0 0 0 0 0 0 0 0 0 0 0 0 0 0
0 0 1 3 4 4 3 2 0 0 0 0 0 0 0 0 0 0 0 0 0 0 0 0 0 0 0 0 0 0 0 0 0 0 0 0 0 0 0 0 0 0 0
0 0 1 2 4 4 2 1 0 0 0 0 0 0 0 0 0 0 0 0 0 0 0 0 0 0 0 0 0 0 0 0 0 0 0 0 0 0 0 0 0 0 0
1 1 2 3 4 3 1 0 0 0 0 0 0 0 0 0 0 0 0 0 0 0 0 0 0 0 0 0 0 0 0 0 0 0 0 0 0 0 0 0 0 0 0
2 3 4 5 5 3 1 0 0 0 0 0 0 0 0 0 0 0 0 0 0 0 0 0 0 0 0 0 0 0 0 0 0 0 0 0 0 0 0 0 0 0 0
10 9 8 7 6 3 1 0 0 0 0 0 0 0 0 0 0 0 0 0 0 0 0 0 0 0 0 0 0 0 0 0 0 0 0 0 0 0 0 0 0 0 0
20 18 13 8 6 3 1 0 0 0 0 0 0 0 0 0 0 0 0 0 0 0 0 0 0 0 0 0 0 0 0 0 0 0 0 0 0 0 0 0 0 0 0
21 21 16 9 4 2 0 0 0 0 0 0 0 0 0 0 0 0 0 0 0 0 0 0 0 0 0 0 0 0 0 0 0 0 0 0 0 0 0 0 0 0 0
14 14 12 6 2 0 0 0 0 0 0 0 0 0 0 0 0 0 0 0 0 0 0 0 0 0 0 0 0 0 0 0 0 0 0 0 0 0 0 0 0 0 0
6 6 5 2 0 0 0 0 0 0 0 0 0 0 0 0 0 0 0 0 0 0 0 0 0 0 0 0 0 0 0 0 0 0 0 0 0 0 0 0 0 0 0
2 3 2 1 0 0 0 0 0 0 0 0 0 0 0 0 0 0 0 0 0 0 0 0 0 0 0 0 0 0 0 0 0 0 0 0 0 0 0 0 0 0 0
0 1 1 1 0 0 0 0 0 0 0 0 0 0 0 0 0 0 0 0 0 0 0 0 0 0 0 0 0 0 0 0 0 0 0 0 0 0 0 0 0 0 0
0 0 0 0 0 0 0 0 0 0 0 0 0 0 0 0 0 0 0 0 0 0 0 0 0 0 0 0 0 0 0 0 0 0 0 0 0 0 0 0 0 0 0
0 0 0 0 0 0 0 0 0 0 0 0 0 0 0 0 0 0 0 0 0 0 0 0 0 0 0 0 0 0 0 0 0 0 0 0 0 0 0 0 0 0 0
0 0 0 0 0 0 0 0 0 0 0 0 0 0 0 0 0 0 0 0 0 0 0 0 0 0 0 0 0 0 0 0 0 0 0 0 0 0 1 0 0 0 0
0 0 0 0 0 0 0 0 0 0 0 0 0 0 0 0 0 0 0 0 0 0 0 0 0 0 0 0 0 0 0 0 0 0 0 0 0 0 0 0 0 0 0
0 0 0 0 0 0 0 0 0 0 0 0 0 0 0 0 0 0 0 0 0 0 0 0 0 0 0 0 0 0 0 0 0 0 0 0 0 0 0 0 0 0 0
0 0 0 0 0 0 0 0 0 0 0 0 0 0 0 0 0 0 0 0 0 0 0 0 0 0 0 0 0 0 0 0 0 0 0 0 0 0 0 0 0 0 0
0 0 0 0 0 0 0 0 0 0 0 0 0 0 0 0 0 0 0 0 0 0 0 0 0 0 0 0 0 0 0 0 0 0 0 0 0 0 0 0 0 0 0
0 0 0 0 0 0 0 0 0 0 0 0 0 0 0 0 0 0 0 0 0 0 0 0 0 0 0 0 0 0 0 0 0 0 0 0 0 0 0 0 0 0 0
0 0 0 0 0 0 0 0 0 0 0 0 0 0 0 0 0 0 0 0 0 0 0 0 0 0 0 0 0 0 0 0 0 0 0 0 0 0 0 0 0 0 0
0 0 0 0 0 0 0 0 0 0 0 0 0 0 0 0 0 0 0 0 0 0 0 0 0 0 0 0 0 0 0 0 0 0 0 0 0 0 0 0 0 0 0
0 0 0 0 0 0 0 0 0 0 0 0 0 0 0 0 0 0 0 0 0 0 0 0 0 0 0 0 0 0 0 0 0 0 0 0 0 0 0 0 0 0 0
1 1 0 0 0 0 0 0 0 0 0 0 0 0 0 0 0 0 0 0 0 0 0 0 0 0 0 0 0 0 0 0 0 0 0 0 0 0 0 0 0 0 0
0 1 0 0 0 0 0 0 0 0 0 0 0 0 0 0 0 0 0 0 0 0 0 0 0 0 0 0 0 0 0 0 0 0 0 0 0 0 0 0 0 0 0
Wind_Speed
8 10 17 17 17 17 16 16 15 14 14 14 14 14 13 12 12 11 11 11 11 11 12 13 14 14 14 14 14 14 14 14 14 13 13 12 12 13 13 12 11 7 13
11 13 17 17 17 17 16 15 14 14 13 13 14 13 12 11 11 10 10 11 11 12 14 14 14 13 13 13 13 13 13 13 12 11 10 8 9 11 12 11 10 7 11
14 12 15 16 16 16 16 16 15 14 14 13 13 12 11 10 10 10 11 11 12 13 14 14 13 13 13 13 12 12 12 10 9 7 6 4 5 11 11 10 10 11 11
16 12 13 16 17 17 17 16 15 15 14 13 12 11 11 10 10 11 11 12 13 14 14 13 13 12 11 11 11 11 9 7 6 5 3 2 3 10 12 11 11 11 11
13 10 13 16 17 17 17 16 15 15 14 13 12 11 10 10 10 12 12 13 13 14 13 13 12 11 10 10 10 10 9 9 10 8 4 4 3 10 12 12 12 12 12
10 9 12 16 17 17 16 16 16 15 14 13 12 11 10 10 11 12 12 13 13 13 13 12 11 10 9 8 8 9 9 11 9 5 4 4 4 10 12 12 12 12 12
11 9 12 16 17 17 16 16 15 15 14 13 12 11 11 11 12 13 13 13 12 13 12 11 10 9 8 7 7 8 10 11 7 5 4 4 5 11 11 12 12 12 12
13 10 11 16 16 16 16 15 15 14 13 12 12 11 11 12 12 12 12 12 12 12 12 11 9 8 6 5 6 7 8 8 7 6 4 4 8 10 11 11 11 11 11
12 10 8 10 12 14 14 14 14 13 12 11 11 11 10 10 11 11 11 12 12 11 11 10 9 7 6 4 4 5 6 7 5 3 4 3 8 10 10 10 10 10 10
10 10 9 8 8 9 10 13 13 12 11 10 10 10 9 9 9 9 8 10 10 11 10 9 8 7 5 3 2 3 5 5 3 3 3 4 9 10 9 9 9 9 10
10 9 9 8 8 8 8 10 11 11 11 10 9 10 8 5 5 5 6 8 9 9 9 9 8 7 4 3 2 1 3 2 3 2 2 7 9 9 9 9 9 9 9
12 10 8 8 8 8 7 6 5 5 6 5 5 6 4 4 3 4 6 8 8 8 8 8 7 6 3 1 2 1 1 2 2 2 3 9 10 10 9 9 9 9 9
11 10 9 9 8 8 5 5 4 3 4 5 6 6 4 4 3 3 2 4 4 5 3 4 4 2 2 2 2 2 2 2 2 3 4 10 11 11 10 9 9 8 8
10 10 10 9 8 8 7 6 5 4 4 4 5 6 4 3 3 3 3 3 3 2 3 3 2 3 3 4 4 4 3 3 3 3 4 10 11 12 11 10 10 9 9
9 9 10 10 10 8 7 6 6 5 5 5 5 6 6 4 5 4 4 4 4 3 4 4 4 4 4 5 5 5 5 5 5 5 4 10 11 12 12 12 11 10 10
8 9 8 9 10 9 7 6 6 6 6 6 5 7 8 6 6 6 5 5 5 4 4 5 5 5 4 4 5 5 5 5 5 6 5 7 11 12 13 13 13 12 11
7 7 7 8 8 9 8 7 6 6 6 6 6 7 8 7 7 7 6 6 6 5 6 4 5 4 4 4 5 5 4 5 5 6 6 4 6 11 13 15 14 14 13
7 7 7 7 8 8 7 6 5 5 6 5 5 6 8 9 9 7 6 6 6 5 5 5 4 4 4 4 3 3 3 4 6 6 6 5 5 5 9 14 14 15 15
8 7 7 6 7 7 6 5 5 5 5 5 5 5 7 8 8 7 6 6 6 5 5 6 5 4 4 4 4 4 3 4 5 6 6 7 6 6 6 10 13 14 14
6 6 6 6 5 5 4 3 3 3 3 3 4 5 6 6 7 7 5 6 6 5 5 5 5 5 4 4 4 4 3 4 3 5 7 6 6 7 7 7 7 9 13
4 4 4 5 4 4 3 3 3 4 3 3 4 5 6 6 7 6 5 6 6 6 7 7 5 5 5 3 2 2 3 3 5 5 5 5 7 8 7 8 6 5 6
4 4 4 3 3 3 3 3 3 3 3 3 3 4 5 6 6 6 7 6 6 6 7 7 6 4 4 5 4 2 3 4 4 5 5 6 7 6 8 9 7 7 6
3 2 3 3 3 2 2 2 1 1 0 1 2 3 4 4 5 6 6 6 6 6 7 8 8 8 6 5 5 5 4 6 3 3 4 5 5 5 6 6 8 8 7
2 2 2 2 2 1 2 2 3 3 3 3 3 3 3 3 4 4 5 6 6 6 7 7 8 7 7 6 4 5 4 4 4 3 3 3 4 5 6 6 7 7 7
3 3 3 3 3 2 2 2 3 2 2 1 1 2 2 2 3 3 4 4 5 5 6 7 7 7 7 7 6 4 5 3 3 4 5 3 2 3 4 4 4 4 6
3 4 4 4 4 3 3 2 2 2 1 0 1 1 2 2 2 3 3 3 4 4 5 6 6 6 6 7 6 5 5 4 5 6 8 5 3 2 1 1 2 2 2
Wind_Direction
155 158 154 151 146 143 141 138 134 130 125 121 117 114 112 110 107 106 106 106 104 102 99 94 90 88 88 88 88 89 88 87 85 83 78 74 78 84 84 80 74 68 75
147 154 152 150 146 145 142 138 134 131 128 124 120 116 114 113 112 112 112 111 111 107 102 97 93 91 92 94 95 94 92 91 88 85 74 68 79 86 86 86 85 81 79
144 151 150 148 145 144 141 138 135 132 129 125 122 118 116 116 118 120 118 115 113 109 104 99 96 94 95 97 98 96 93 90 88 84 74 55 80 92 91 87 85 82 79
145 149 150 147 144 143 140 139 136 133 129 125 121 120 120 121 123 126 123 119 116 111 107 104 101 99 99 99 97 91 82 77 83 97 81 52 70 90 88 86 84 82 80
141 145 150 146 144 143 141 139 137 133 129 126 123 123 125 127 128 129 124 120 117 116 114 111 108 105 103 100 94 84 74 76 90 92 85 68 65 87 85 83 83 83 82
134 139 149 146 145 143 141 140 138 135 132 129 128 127 128 130 130 129 125 123 122 123 121 118 116 113 108 103 93 80 78 93 93 88 82 76 75 90 87 85 83 83 83
135 141 150 146 145 144 144 142 140 138 136 135 135 135 134 133 132 132 131 130 131 131 129 127 126 123 117 107 90 79 88 103 99 94 87 81 90 95 90 87 86 84 84
141 144 151 147 146 146 147 145 141 140 141 141 142 143 139 137 137 138 139 140 139 140 139 137 136 134 130 118 95 85 93 108 108 104 98 95 104 100 96 95 92 91 88
142 143 147 149 150 149 148 146 145 144 144 146 145 142 139 138 141 144 147 148 148 148 147 147 147 149 149 138 107 89 92 109 120 125 118 113 113 109 106 104 101 98 96
143 148 148 151 152 149 148 149 147 147 146 146 140 136 136 139 142 145 149 154 155 155 156 157 160 165 168 171 146 102 103 115 132 134 131 134 125 119 116 113 110 108 105
149 153 154 154 152 149 150 154 149 148 148 144 140 141 135 134 139 145 152 157 159 162 164 168 173 178 183 209 222 149 106 125 146 152 157 150 139 132 128 125 120 118 116
159 163 161 158 156 153 157 149 147 147 147 144 148 148 143 147 157 158 164 165 166 168 173 179 184 187 184 248 281 282 117 147 166 175 179 163 153 146 142 138 134 131 128
165 167 169 166 162 160 152 153 153 147 151 157 162 164 159 157 165 162 161 167 168 171 175 189 189 194 205 230 251 245 202 181 189 196 189 175 165 160 156 154 151 147 143
165 171 173 170 167 167 160 164 164 161 166 173 180 177 167 167 174 175 177 177 175 174 181 189 196 216 229 238 242 244 226 197 192 194 197 184 176 172 169 167 166 163 159
165 171 173 171 170 170 166 171 173 176 180 184 184 187 180 177 181 182 187 188 190 186 191 200 209 220 234 243 244 238 227 205 194 190 194 190 182 179 178 178 179 177 173
171 171 169 169 171 170 173 176 177 184 186 187 191 193 188 186 185 186 191 196 199 199 200 205 211 217 226 229 237 233 224 205 196 190 193 193 190 186 187 189 189 188 186
179 175 171 171 170 172 176 182 181 185 185 189 196 198 194 190 190 190 194 199 205 203 203 209 219 222 231 229 232 226 216 203 197 195 193 194 195 195 194 197 197 197 196
176 180 182 179 175 178 178 181 181 185 187 192 195 197 199 195 192 193 198 203 202 199 200 206 210 216 228 229 229 228 215 202 202 202 197 198 197 199 204 206 204 203 203
178 181 188 188 184 187 185 183 183 182 188 193 194 197 202 201 197 197 204 204 196 198 201 207 204 200 215 224 227 229 224 213 206 203 204 205 204 202 202 212 209 207 207
172 173 178 184 186 187 185 185 189 194 197 195 197 203 205 206 204 203 207 205 196 200 206 205 206 206 207 208 219 230 236 234 221 211 210 209 210 209 206 208 207 210 208
147 153 166 173 184 177 175 186 194 208 208 208 210 210 209 210 208 207 212 208 204 209 212 208 206 211 216 181 184 260 280 250 236 227 214 211 214 212 207 208 204 199 208
136 138 141 153 163 176 191 191 191 195 209 216 219 222 219 218 217 214 213 214 211 215 217 214 207 207 209 181 176 191 271 294 260 231 216 217 218 211 212 211 207 202 199
117 129 133 142 146 163 174 156 132 127 122 224 234 237 235 231 230 227 223 220 218 216 221 220 212 209 217 207 191 176 193 231 261 275 237 228 218 213 218 212 210 208 202
121 109 108 120 117 118 131 136 155 182 208 223 233 243 254 242 241 239 234 229 226 223 224 225 219 216 213 216 214 219 211 183 194 259 274 247 227 221 219 216 212 212 207
104 89 81 85 79 77 94 133 154 182 217 247 260 264 262 264 259 256 246 241 239 235 234 233 226 221 217 218 208 203 223 228 212 221 259 261 260 240 229 226 219 213 210
86 77 76 80 66 58 73 86 127 160 185 206 276 272 273 275 278 282 270 256 251 247 245 242 237 230 227 226 220 204 196 199 206 212 236 237 237 253 257 235 236 231 218